Find Starlink 31845

NORAD ID: 60129 Int'l Des: 2024-118 Owner: SPXS Country: US Constellation: starlink operational
LEOCIRCULAR

現在のビュー

3D地球を読み込み中...

About Starlink 31845

Starlink 31845 (NORAD 60129) is a starlink constellation satellite (v2 mini) launched Jun 24, 2024 by SPXS of US. It operates in LEO, CIRCULAR orbit with a mass of 730.00 kg.

次回通過

Passes for default location (London). Set your location on the main map for personalized predictions.

高度履歴

Loading altitude history...

軌道要素

1 60129U 24118S 26265.20217247 .00000119 00000-0 14653-4 0 9994
2 60129 53.1599 189.6525 0001369 72.3688 287.7464 15.34394508125841
Epoch: Sep 22, 2026 • Age: 27 hours

現在のステータス

高度 462.4 km
遠地点 / 近地点 N/A
速度 7.64 km/s
衛星直下点 14.72°N, 80.97°E
打ち上げ日 Jun 24, 2024
運用期間 2.2 years
タイプ internet

技術仕様

分類 Payload
質量 730.00 kg
乾燥質量 700.00 kg
長さ 0.30 m
スパン 29.00 m
形状 ? Box + pan
製造者 SPXS
バスタイプ Starlink V2M
フェーズステータス In Orbit
所有者/国 SPXS/US

Most Searched